Timeline UpdatesTrip UpdatesNews PostsPvt PostsTravel TipsAdmin PostsConv PostsFollowed PostsChat RequestsBlog PostsPNR Posts

Disclaimer
Search
 
 
Wed Jul 23, 2014 19:29:08 ISTHomeTrainsΣChainsAtlasPNRForumGalleryNewsFAQTripsMembersLoginFeedback
No Recent News for this Train
Other Trains in the News **new
Latest...
.
Tue Aug 14, 2012 (11:48AM)
⇐ Return Journey: Train# 51153

51154/Bhusaval Mumbai Passenger (UnReserved)

Sep 11 2013 (11:12PM)
Change Departure Station:
Change Arrival Station:
Post a Train Travel TipPost a Train Travel Tip **new
Post a Comment/Question/Picture/VideoPost a Comment/Question/Picture/Video
Pantry/Catering
✕ NO Pantry Car
✕ NO Catering
RSA - Rake Sharing
No RSA.
Rake/Coach Composition
Entry# 145371 Author: ® राहुल कुमार जैन ; Engine, SLR, GS, GS, GS, GS, GS, GS, GS, GS, GS, GS, GS, GS, SLR= 14 coach
Loco
BSL-IGP : WAP-4 BSL, IGP-CSTM : WCAM-3 KYN.
News    PNR    Forum    Time-Table    Availability    Fare Chart    Map    Arr/Dep History    Trips    Gallery    ΣChains    X/O    Timeline    
Travel Time: 0h 52m    3 halts    Distance: 45 km    Avg Speed: 51 km/hr
Type: Passenger
Zone: CR/Central
Departs @ 07:05
Platform# 5
SMTWTFS
Bhusaval Junction/BSL 
Arrives @ 07:57
Platform# ???
SMTWTFS
Mhasavad/MWD 

3 halts. 4 intermediate Stations between Bhusaval Junction and Mhasavad

Hide intermediate Stations  Show Old Time-Table

#CodeStation NameX/OArrivesAvgDepartsAvgHaltPFDay#KmSpeedElevZoneAddress
1BSL»Bhusaval Junction (8)»  -07:05-510.047208mCRBhusaval 425201, Maharashtra
2BDIBhadli (2)  07:21-07:22-1m--112.677211mCRBhadli, Maharashtra
2.1TRWTarsod  07:27-07:27-  119.4 77206mCRAsoda - Tarsod Road, Maharashtra
3JLJalgaon Junction (4)  07:31-07:34-3m2124.154213mCRJalgaon 425001, Maharashtra
4SSShirsoli (2)X  07:47-07:48-1m--135.962211mCRShirsoli, Maharashtra
5MWD•Mhasavad (3)•  07:57-07:58-1m--145.271220mCRMhasavad, Maharashtra
6MYJMaheji (2)  08:08-08:09-1m--157.063247mCRJalgaon, Maharashtra
7PHQPardhande (2)XO  08:16-08:17-1m--164.434243mCRPardhande, Maharashtra
8PCPachora Junction (4)O  08:30-08:35-5m--171.826264mCRPachora 424201, Maharashtra
9GAAGalan (2)  08:59-09:00-1m--182.356282mCRGalan, Maharashtra
10NGDNagardevla (2)  09:09-09:10-1m--190.845280mCRNagardevla, Maharashtra
11KJKajgaon (3)O  09:19-09:20-1m--197.466297mCRKajgaon, Maharashtra
12VGLVaghli (2)  09:29-09:30-1m--1107.356331mCRVaghli, Maharashtra
13CSNChalisgaon Junction (3)  09:40-09:45-5m--1116.752352mCRChalisgaon 424101, Maharashtra
14HPRHirapur (2)  09:54-09:55-1m--1124.5135373mCRHirapur, Maharashtra
15RHNERohini (2)X  09:59-10:00-1m--1133.531422mCRRohini, Maharashtra
16NINaydongri (2)X  10:09-10:10-1m--1138.265427mCRNaydongri, Maharashtra
17PKEPimpar Khed (2)X  10:19-10:20-1m--1148.046462mCRPimpar Khed, Maharashtra
18NGNNandgaon (3)X  10:34-10:35-1m--1158.897476mCRNandgaon, Maharashtra
19PJNPanjhan (2)  10:39-10:40-1m--1165.336514mCRPanjhan, Maharashtra
20HSLHisvahal (2)  10:49-10:50-1m--1170.851540mCRHisvahal, Maharashtra
21PNVPanevadi (2)X  10:59-11:00-1m--1178.429561mCRPanevadi, Maharashtra
22MMRManmad Junction (6)X  11:12-11:15-3m31184.253580mCRManmad 423104, Maharashtra
23SUMSummit (2)  11:29-11:30-1m21196.652632mCRSummit, Maharashtra
24LSLasalgaon (3)X  11:44-11:45-1m--1208.766592mCRLasalgaon, Maharashtra
25UGNUgaon (2)X  11:54-11:55-1m21218.647568mCRUgaon, Maharashtra
26NRNiphad (3)XO  12:04-12:05-1m21225.640550mCRNashik, Maharashtra
27KBSNKasbe Sukene (3)O  12:14-12:15-1m--1231.645548mCRKasbe Sukene, Maharashtra
28KWKhervadi (2)  12:24-12:25-1m21238.347553mCRKherwadi, Maharashtra
29ODHAOdha (2)O  12:34-12:35-1m21245.446571mCRDist. Nashik, Maharashtra
30NKNasik Road (3)  12:50-13:10-20m31257.025563mCRNashik 422101, Maharashtra
31DVLDevlali (3)  13:24-13:25-1m21262.732561mCRDist. Nashik 422401, Maharashtra
32LTLahavit (1)X  13:39-13:40-1m11270.383587mCRWadhiware, Maharashtra
33AVAsvali (2)X  13:49-13:50-1m--1282.757578mCRAsvali, Maharashtra
34PIPadli (1)X  13:59-14:00-1m11291.236591mCRNational Highway 3, Maharashtra
35GOGhoti (2)XO  14:14-14:15-1m--1299.56581mCRGhoti, Maharashtra
36IGPIgatpuri (4)X15:40-15:45-5m--1307.618589mCRIgatpuri 422403, Maharashtra
37TGR2Block & Catch Siding Cabin 2X  16:09-16:10-1m--1314.726473mCRNational Highway 3, Maharashtra
38TGR3Block & Catch Siding Cabin 3X  16:18-16:20-2m--1318.216365mCRNH-3, Maharashtra
39KSRAKasara (4)X  16:34-16:35-1m--1322.031290mCRDist. Thane 421602, Maharashtra
40OMBOombermaliX  16:48-16:49-1m--1328.879248mCROombermali, Maharashtra
41KEKhardi (2)  16:54-16:55-1m--1335.362232mCRKhardi, Maharashtra
42THSThansit  17:01-17:02-1m--1341.571184mCRNational Highway 3, Maharashtra
43ATGAtgaon (2)X  17:07-17:08-1m--1347.449147mCRAtgaon, Maharashtra
44ASOAsangaon (3)X  17:20-17:21-1m--1357.24577mCRDist. Thane, Maharashtra
45VSDVasind (2)X  17:29-17:30-1m--1363.23332mCRVasind, Maharashtra
46KDVKhadavli (3)XO  17:44-17:45-1m--1370.81023mCRKhadavli, Maharashtra
47TLATitwala (3)  18:29-18:30-1m--1378.44117mCRTitwala, Maharashtra
48ABYAmbivli (2)  18:37-18:38-1m21383.23622mCRAmbivli, Maharashtra
49SHADShahad (2)  18:43-18:44-1m21386.2-12mCRUlhasnagar, Maharashtra
50KYNKalyan Junction (8)X  18:45-18:50-5m51389.45310mCRKalyan 421301, Maharashtra
50.1THKThakurli (2)  18:54-18:54-  1393.0 5314mCRThakurli, Maharashtra
50.2DIDombivli (5)  18:56-18:56-  1394.4 5311mCRDombivli, Maharashtra
50.3KOPRKopar (4)  18:57-18:57-  1395.7 530mCRKopar, Maharashtra
50.4DIVADiva Junction (6)X  19:02-19:02-  1400.0 533mCRJn Pt TNA/PNVL/KYN/BSR Diva, Maharashtra
50.5MBQMumbra (2)  19:05-19:05-  1402.6 538mCRMumbra, Maharashtra
50.6KLVAKalva (2)  19:10-19:10-  1407.1 535mCRKalva, Maharashtra
51TNAThane (10)  19:13-19:15-2m61409.65810mCRThane, Maharashtra
51.1MLNDMulund (4)X  19:18-19:18-  1412.2 5812mCRMumbai, Maharashtra
51.2NHUNahur (2)  19:20-19:20-  1414.4 585mCRMumbai, Maharashtra
51.3BNDBhandup (4)  19:22-19:22-  1416.0 587mCRMumbai 400078, Maharashtra
51.4KJMGKanjur Marg (2)  19:24-19:24-  1417.9 585mCRMumbai, Maharashtra
51.5VKVikhroli (4)  19:25-19:25-  1419.8 5810mCRMumbai, Maharashtra
51.6GCGhatkopar (4)  19:29-19:29-  1423.4 5811mCRMumbai 400086, Maharashtra
51.7VVHVidyavihar (2)  19:31-19:31-  1424.8 588mCRMumbai, Maharashtra
51.8LTTMumbai Lokmanya Tilak Terminus (5)X  19:32-19:32-  1426.1 587mCRMumbai, Maharashtra
51.9CLAKurla Junction (8)  19:33-19:33-  1427.2 588mCRMumbai, Maharashtra
51.10SINMumbai Sion (4)  19:36-19:36-  1429.8 587mCRMumbai, Maharashtra
51.11MTNMumbai Matunga (4)  19:39-19:39-  1432.5 587mCRMumbai, Maharashtra
52DRMumbai Dadar Central (8)  19:40-19:45-5m61433.9177mCRMumbai 400014, Maharashtra
52.1PRMumbai Parel (4)X  19:49-19:49-  1434.9 176mCRMumbai, Maharashtra
52.2CRDMumbai Currey Road (2)  19:55-19:55-  1436.7 175mCRMumbai, Maharashtra
52.3CHGMumbai Chinchpokli (2)  19:58-19:58-  1437.5 176mCRMumbai, Maharashtra
52.4BYByculla (4)X  20:02-20:02-  1438.6 179mCRMumbai 400027, Maharashtra
52.5SNRDMumbai Sandhurst Road (4)  20:08-20:08-  1440.5 179mCRMumbai, Maharashtra
52.6MSDMumbai Masjid (4)  20:12-20:12-  1441.6 1710mCRMumbai, Maharashtra
53CSTMMumbai CST (18)  20:15--111442.5-10mCRMumbai 400001, Maharashtra
Scroll to Top
Scroll to Bottom